Weather Roundup
Issued by NWS Springfield, MO

Home | Current Version | Previous Version | Text Only | Print | Product List | Glossary On
Versions: 1 2 3 4 5 6 7 8 9 10 11 12 13 14 15 16 17 18 19 20 21 22 23 24 25 26 27 28 29 30 31 32 33 34 35 36 37 38 39 40 41 42 43 44 45 46 47 48 49 50
195
NZUS99 KSGF 291857
HRRSGF

HOURLY WEATHER
NATIONAL WEATHER SERVICE SPRINGFIELD MO
200 PM CDT THU SEP 29 2016

......SGF CWA......

CITY           SKY/WX    TMP DP  RH WIND       PRES   REMARKS
SPRINGFIELD    SUNNY     71  42  35 N18       30.28F
JOPLIN         SUNNY     69  51  52 N12       30.32F
WEST PLAINS    SUNNY     73  48  41 N13G24    30.23F
ROLLA          MOSUNNY   70  53  54 NW16G23   30.21F
BRANSON        SUNNY     72  45  37 NW12G17   30.27F

......SURROUNDING SGF CWA......

CITY           SKY/WX    TMP DP  RH WIND       PRES   REMARKS
CHANUTE        SUNNY     71  50  47 N8        30.34F
PARSONS        SUNNY     71  49  45 N12       30.34F
COFFEYVILLE    MOSUNNY   71  50  47 N14       30.33F
EMPORIA        SUNNY     69  48  47 N9G18     30.36F
HARRISON AR    SUNNY     72  48  42 N10       30.26F

......KANSAS AND MISSOURI......

CITY           SKY/WX    TMP DP  RH WIND       PRES   REMARKS
KANSAS CTY INT MOSUNNY   69  49  48 N12       30.34F
SEDALIA        SUNNY     75  45  34 N9G21     30.29F
ST JOSEPH      SUNNY     71  47  42 NE9       30.36F
ST LOUIS       CLOUDY    67  54  63 N15       30.19F
WICHITA        MOSUNNY   69  50  50 N9        30.37F
TOPEKA         MOSUNNY   70  51  51 N10       30.36F
OLATHE         SUNNY     68  47  46 N10       30.34F

......TENNESSEE......

CITY           SKY/WX    TMP DP  RH WIND       PRES   REMARKS
MEMPHIS        NOT AVBL
NASHVILLE      CLOUDY    64  49  57 N9        30.09S

......ARKANSAS.......

CITY           SKY/WX    TMP DP  RH WIND       PRES   REMARKS
FAYETTEVILLE   SUNNY     69  49  48 N12G21    30.29F
FT SMITH       SUNNY     76  44  32 NE8G20    30.25F
LITTLE ROCK    MOSUNNY   77  48  35 N8        30.20F

......OKLAHOMA.......

CITY           SKY/WX    TMP DP  RH WIND       PRES   REMARKS
TULSA          MOSUNNY   73  48  41 NE8       30.30F
PONCA CITY     MOSUNNY   71  47  42 NE8G18    30.35F
MCALESTER      MOSUNNY   73  48  41 N10       30.30F
OKLAHOMA CITY  SUNNY     70  47  43 NE10      30.34F

......IOWA............

CITY           SKY/WX    TMP DP  RH WIND       PRES   REMARKS
DES MOINES     NOT AVBL
QUAD CITIES    SUNNY     74  52  46 N15G24    30.23F

......ILLINOIS........

CITY           SKY/WX    TMP DP  RH WIND       PRES   REMARKS
QUINCY         NOT AVBL
CHICAGO        LGT RAIN  63  59  87 N15       30.18S




USA.gov is the U.S. government's official web portal to all federal, state and local government web resources and services.